owner,sensor,date,latitude,longitude,relative_humidity,qcFlag 
TCOON,ioos:station:TCOON:146:1,2016-02-01T22:30:00Z,28.1324,-97.0345,90.6,1111122 
TCOON,ioos:station:TCOON:146:1,2016-02-01T23:30:00Z,28.1324,-97.0345,91.8,1111122 
TCOON,ioos:station:TCOON:146:1,2016-02-02T00:30:00Z,28.1324,-97.0345,95.4,1111122 
TCOON,ioos:station:TCOON:146:1,2016-02-02T01:30:00Z,28.1324,-97.0345,96.0,1111122 
TCOON,ioos:station:TCOON:146:1,2016-02-02T02:30:00Z,28.1324,-97.0345,90.9,1111122 
TCOON,ioos:station:TCOON:146:1,2016-02-02T03:30:00Z,28.1324,-97.0345,91.4,1111122 
TCOON,ioos:station:TCOON:146:1,2016-02-02T04:30:00Z,28.1324,-97.0345,91.7,1111122 
TCOON,ioos:station:TCOON:146:1,2016-02-02T05:30:00Z,28.1324,-97.0345,92.6,1111122 
TCOON,ioos:station:TCOON:146:1,2016-02-02T06:30:00Z,28.1324,-97.0345,92.4,1111122 
TCOON,ioos:station:TCOON:146:1,2016-02-02T07:30:00Z,28.1324,-97.0345,90.3,1111122 
TCOON,ioos:station:TCOON:146:1,2016-02-02T08:30:00Z,28.1324,-97.0345,89.0,1111122 
TCOON,ioos:station:TCOON:146:1,2016-02-02T10:30:00Z,28.1324,-97.0345,93.4,1111122 
TCOON,ioos:station:TCOON:146:1,2016-02-02T11:30:00Z,28.1324,-97.0345,92.9,1111122 
TCOON,ioos:station:TCOON:146:1,2016-02-02T12:30:00Z,28.1324,-97.0345,93.6,1111122 
TCOON,ioos:station:TCOON:146:1,2016-02-02T13:30:00Z,28.1324,-97.0345,49.4,1111122 
TCOON,ioos:station:TCOON:146:1,2016-02-02T14:30:00Z,28.1324,-97.0345,35.4,1111122 
TCOON,ioos:station:TCOON:146:1,2016-02-02T15:30:00Z,28.1324,-97.0345,33.6,1111122 
TCOON,ioos:station:TCOON:146:1,2016-02-02T19:30:00Z,28.1324,-97.0345,32.9,1111122 
TCOON,ioos:station:TCOON:146:1,2016-02-02T20:30:00Z,28.1324,-97.0345,30.4,1111122 
TCOON,ioos:station:TCOON:146:1,2016-02-02T22:30:00Z,28.1324,-97.0345,38.6,1111122 
TCOON,ioos:station:TCOON:146:1,2016-02-03T00:30:00Z,28.1324,-97.0345,47.0,1111122 
TCOON,ioos:station:TCOON:146:1,2016-02-03T01:30:00Z,28.1324,-97.0345,46.9,1111122 
TCOON,ioos:station:TCOON:146:1,2016-02-03T02:30:00Z,28.1324,-97.0345,47.2,1111122 
TCOON,ioos:station:TCOON:146:1,2016-02-03T03:30:00Z,28.1324,-97.0345,51.5,1111122 
TCOON,ioos:station:TCOON:146:1,2016-02-03T04:30:00Z,28.1324,-97.0345,52.4,1111122 
TCOON,ioos:station:TCOON:146:1,2016-02-03T05:30:00Z,28.1324,-97.0345,57.3,1111122 
TCOON,ioos:station:TCOON:146:1,2016-02-03T06:30:00Z,28.1324,-97.0345,54.2,1111122 
TCOON,ioos:station:TCOON:146:1,2016-02-03T07:30:00Z,28.1324,-97.0345,55.3,1111122 
TCOON,ioos:station:TCOON:146:1,2016-02-03T08:30:00Z,28.1324,-97.0345,52.8,1111122 
TCOON,ioos:station:TCOON:146:1,2016-02-03T10:30:00Z,28.1324,-97.0345,55.2,1111122 
TCOON,ioos:station:TCOON:146:1,2016-02-03T11:30:00Z,28.1324,-97.0345,60.0,1111122 
TCOON,ioos:station:TCOON:146:1,2016-02-03T12:30:00Z,28.1324,-97.0345,62.8,1111122 
TCOON,ioos:station:TCOON:146:1,2016-02-03T13:30:00Z,28.1324,-97.0345,64.5,1111122 
TCOON,ioos:station:TCOON:146:1,2016-02-03T14:30:00Z,28.1324,-97.0345,62.2,1111122 
TCOON,ioos:station:TCOON:146:1,2016-02-03T15:30:00Z,28.1324,-97.0345,54.2,1111122 
TCOON,ioos:station:TCOON:146:1,2016-02-03T16:30:00Z,28.1324,-97.0345,49.4,1111122 
TCOON,ioos:station:TCOON:146:1,2016-02-03T17:30:00Z,28.1324,-97.0345,46.7,1111122 
TCOON,ioos:station:TCOON:146:1,2016-02-03T18:30:00Z,28.1324,-97.0345,44.6,1111122 
TCOON,ioos:station:TCOON:146:1,2016-02-07T15:30:00Z,28.1324,-97.0345,84.0,1111122 
TCOON,ioos:station:TCOON:146:1,2016-02-07T16:30:00Z,28.1324,-97.0345,79.5,1111122 
TCOON,ioos:station:TCOON:146:1,2016-02-07T17:30:00Z,28.1324,-97.0345,80.9,1111122 
TCOON,ioos:station:TCOON:146:1,2016-02-07T20:30:00Z,28.1324,-97.0345,55.5,1111122 
TCOON,ioos:station:TCOON:146:1,2016-02-07T23:30:00Z,28.1324,-97.0345,65.7,1111122 
TCOON,ioos:station:TCOON:146:1,2016-02-08T00:30:00Z,28.1324,-97.0345,74.3,1111122 
TCOON,ioos:station:TCOON:146:1,2016-02-08T01:30:00Z,28.1324,-97.0345,77.0,1111122 
TCOON,ioos:station:TCOON:146:1,2016-02-08T02:30:00Z,28.1324,-97.0345,71.2,1111122 
TCOON,ioos:station:TCOON:146:1,2016-02-08T03:30:00Z,28.1324,-97.0345,83.3,1111122 
TCOON,ioos:station:TCOON:146:1,2016-02-08T04:30:00Z,28.1324,-97.0345,80.5,1111122 
TCOON,ioos:station:TCOON:146:1,2016-02-08T05:30:00Z,28.1324,-97.0345,83.2,1111122 
TCOON,ioos:station:TCOON:146:1,2016-02-08T06:30:00Z,28.1324,-97.0345,81.5,1111122 
TCOON,ioos:station:TCOON:146:1,2016-02-08T07:30:00Z,28.1324,-97.0345,82.3,1111122 
TCOON,ioos:station:TCOON:146:1,2016-02-08T08:30:00Z,28.1324,-97.0345,82.7,1111122 
TCOON,ioos:station:TCOON:146:1,2016-02-08T10:30:00Z,28.1324,-97.0345,90.0,1111122 
TCOON,ioos:station:TCOON:146:1,2016-02-08T11:30:00Z,28.1324,-97.0345,84.4,1111122 
TCOON,ioos:station:TCOON:146:1,2016-02-08T12:30:00Z,28.1324,-97.0345,86.8,1111122 
TCOON,ioos:station:TCOON:146:1,2016-02-08T14:30:00Z,28.1324,-97.0345,86.7,1111122 
TCOON,ioos:station:TCOON:146:1,2016-02-08T16:30:00Z,28.1324,-97.0345,47.0,1111122 
TCOON,ioos:station:TCOON:146:1,2016-02-08T17:30:00Z,28.1324,-97.0345,35.5,1111122 
TCOON,ioos:station:TCOON:146:1,2016-02-08T18:30:00Z,28.1324,-97.0345,30.5,1111122 
TCOON,ioos:station:TCOON:146:1,2016-02-08T19:30:00Z,28.1324,-97.0345,30.8,1111122 
TCOON,ioos:station:TCOON:146:1,2016-02-08T20:30:00Z,28.1324,-97.0345,27.7,1111122 
TCOON,ioos:station:TCOON:146:1,2016-02-08T21:30:00Z,28.1324,-97.0345,29.1,1111122 
TCOON,ioos:station:TCOON:146:1,2016-02-08T22:30:00Z,28.1324,-97.0345,27.7,1111122 
TCOON,ioos:station:TCOON:146:1,2016-02-08T23:30:00Z,28.1324,-97.0345,30.8,1111122 
TCOON,ioos:station:TCOON:146:1,2016-02-09T00:30:00Z,28.1324,-97.0345,41.7,1111122 
TCOON,ioos:station:TCOON:146:1,2016-02-09T01:30:00Z,28.1324,-97.0345,39.4,1111122 
TCOON,ioos:station:TCOON:146:1,2016-02-09T02:30:00Z,28.1324,-97.0345,41.6,1111122 
TCOON,ioos:station:TCOON:146:1,2016-02-09T03:30:00Z,28.1324,-97.0345,43.4,1111122 
TCOON,ioos:station:TCOON:146:1,2016-02-09T04:30:00Z,28.1324,-97.0345,42.8,1111122 
TCOON,ioos:station:TCOON:146:1,2016-02-09T05:30:00Z,28.1324,-97.0345,45.2,1111122 
TCOON,ioos:station:TCOON:146:1,2016-02-09T06:30:00Z,28.1324,-97.0345,43.1,1111122 
TCOON,ioos:station:TCOON:146:1,2016-02-09T07:30:00Z,28.1324,-97.0345,45.5,1111122 
TCOON,ioos:station:TCOON:146:1,2016-02-09T08:30:00Z,28.1324,-97.0345,50.2,1111122 
TCOON,ioos:station:TCOON:146:1,2016-02-09T10:30:00Z,28.1324,-97.0345,48.7,1111122 
TCOON,ioos:station:TCOON:146:1,2016-02-09T11:30:00Z,28.1324,-97.0345,53.4,1111122 
TCOON,ioos:station:TCOON:146:1,2016-02-09T12:30:00Z,28.1324,-97.0345,50.2,1111122 
TCOON,ioos:station:TCOON:146:1,2016-02-09T13:30:00Z,28.1324,-97.0345,46.7,1111122 
TCOON,ioos:station:TCOON:146:1,2016-02-09T14:30:00Z,28.1324,-97.0345,49.3,1111122 
TCOON,ioos:station:TCOON:146:1,2016-02-09T15:30:00Z,28.1324,-97.0345,41.3,1111122 
TCOON,ioos:station:TCOON:146:1,2016-02-09T16:30:00Z,28.1324,-97.0345,35.7,1111122 
TCOON,ioos:station:TCOON:146:1,2016-02-09T17:30:00Z,28.1324,-97.0345,31.4,1111122 
TCOON,ioos:station:TCOON:146:1,2016-02-09T18:30:00Z,28.1324,-97.0345,38.3,1111122 
TCOON,ioos:station:TCOON:146:1,2016-02-09T19:30:00Z,28.1324,-97.0345,26.9,1111122 
TCOON,ioos:station:TCOON:146:1,2016-02-09T20:30:00Z,28.1324,-97.0345,27.2,1111122 
TCOON,ioos:station:TCOON:146:1,2016-02-09T21:30:00Z,28.1324,-97.0345,32.1,1111122 
TCOON,ioos:station:TCOON:146:1,2016-02-09T22:30:00Z,28.1324,-97.0345,39.7,1111122 
TCOON,ioos:station:TCOON:146:1,2016-02-09T23:30:00Z,28.1324,-97.0345,59.2,1111122 
TCOON,ioos:station:TCOON:146:1,2016-02-10T00:30:00Z,28.1324,-97.0345,62.7,1111122 
TCOON,ioos:station:TCOON:146:1,2016-02-10T01:30:00Z,28.1324,-97.0345,69.6,1111122 
TCOON,ioos:station:TCOON:146:1,2016-02-10T02:30:00Z,28.1324,-97.0345,64.4,1111122 
TCOON,ioos:station:TCOON:146:1,2016-02-10T03:30:00Z,28.1324,-97.0345,55.4,1111122 
TCOON,ioos:station:TCOON:146:1,2016-02-10T04:30:00Z,28.1324,-97.0345,62.6,1111122 
TCOON,ioos:station:TCOON:146:1,2016-02-10T05:30:00Z,28.1324,-97.0345,80.4,1111122 
TCOON,ioos:station:TCOON:146:1,2016-02-10T06:30:00Z,28.1324,-97.0345,82.2,1111122 
TCOON,ioos:station:TCOON:146:1,2016-02-10T07:30:00Z,28.1324,-97.0345,79.9,1111122 
TCOON,ioos:station:TCOON:146:1,2016-02-10T08:30:00Z,28.1324,-97.0345,71.8,1111122 
TCOON,ioos:station:TCOON:146:1,2016-02-10T10:30:00Z,28.1324,-97.0345,67.9,1111122 
TCOON,ioos:station:TCOON:146:1,2016-02-10T11:30:00Z,28.1324,-97.0345,72.7,1111122 
TCOON,ioos:station:TCOON:146:1,2016-02-10T12:30:00Z,28.1324,-97.0345,74.8,1111122 
TCOON,ioos:station:TCOON:146:1,2016-02-10T13:30:00Z,28.1324,-97.0345,61.6,1111122 
TCOON,ioos:station:TCOON:146:1,2016-02-10T14:30:00Z,28.1324,-97.0345,49.6,1111122 
TCOON,ioos:station:TCOON:146:1,2016-02-10T15:30:00Z,28.1324,-97.0345,55.0,1111122 
TCOON,ioos:station:TCOON:146:1,2016-02-10T16:30:00Z,28.1324,-97.0345,53.1,1111122 
TCOON,ioos:station:TCOON:146:1,2016-02-10T17:30:00Z,28.1324,-97.0345,56.9,1111122 
TCOON,ioos:station:TCOON:146:1,2016-02-10T18:30:00Z,28.1324,-97.0345,66.7,1111122 
TCOON,ioos:station:TCOON:146:1,2016-02-10T19:30:00Z,28.1324,-97.0345,69.7,1111122 
TCOON,ioos:station:TCOON:146:1,2016-02-10T20:30:00Z,28.1324,-97.0345,70.2,1111122 
TCOON,ioos:station:TCOON:146:1,2016-02-10T21:30:00Z,28.1324,-97.0345,72.2,1111122 
TCOON,ioos:station:TCOON:146:1,2016-02-10T22:30:00Z,28.1324,-97.0345,66.9,1111122 
TCOON,ioos:station:TCOON:146:1,2016-02-10T23:30:00Z,28.1324,-97.0345,72.1,1111122 
TCOON,ioos:station:TCOON:146:1,2016-02-11T00:30:00Z,28.1324,-97.0345,74.6,1111122 
TCOON,ioos:station:TCOON:146:1,2016-02-11T01:30:00Z,28.1324,-97.0345,80.4,1111122 
TCOON,ioos:station:TCOON:146:1,2016-02-11T02:30:00Z,28.1324,-97.0345,78.7,1111122 
TCOON,ioos:station:TCOON:146:1,2016-02-11T03:30:00Z,28.1324,-97.0345,75.5,1111122 
TCOON,ioos:station:TCOON:146:1,2016-02-11T04:30:00Z,28.1324,-97.0345,71.1,1111122 
TCOON,ioos:station:TCOON:146:1,2016-02-11T05:30:00Z,28.1324,-97.0345,65.3,1111122 
TCOON,ioos:station:TCOON:146:1,2016-02-11T06:30:00Z,28.1324,-97.0345,68.7,1111122 
TCOON,ioos:station:TCOON:146:1,2016-02-11T07:30:00Z,28.1324,-97.0345,68.1,1111122 
TCOON,ioos:station:TCOON:146:1,2016-02-11T08:30:00Z,28.1324,-97.0345,70.3,1111122 
TCOON,ioos:station:TCOON:146:1,2016-02-11T10:30:00Z,28.1324,-97.0345,71.8,1111122 
TCOON,ioos:station:TCOON:146:1,2016-02-11T11:30:00Z,28.1324,-97.0345,74.7,1111122 
TCOON,ioos:station:TCOON:146:1,2016-02-11T12:30:00Z,28.1324,-97.0345,77.4,1111122 
TCOON,ioos:station:TCOON:146:1,2016-02-11T13:30:00Z,28.1324,-97.0345,79.6,1111122 
TCOON,ioos:station:TCOON:146:1,2016-02-11T14:30:00Z,28.1324,-97.0345,76.1,1111122 
TCOON,ioos:station:TCOON:146:1,2016-02-11T15:30:00Z,28.1324,-97.0345,66.6,1111122 
TCOON,ioos:station:TCOON:146:1,2016-02-11T16:30:00Z,28.1324,-97.0345,61.0,1111122 
TCOON,ioos:station:TCOON:146:1,2016-02-11T17:30:00Z,28.1324,-97.0345,55.5,1111122 
TCOON,ioos:station:TCOON:146:1,2016-02-11T18:30:00Z,28.1324,-97.0345,51.7,1111122 
TCOON,ioos:station:TCOON:146:1,2016-02-11T19:30:00Z,28.1324,-97.0345,66.3,1111122 
TCOON,ioos:station:TCOON:146:1,2016-02-11T20:30:00Z,28.1324,-97.0345,73.6,1111122 
TCOON,ioos:station:TCOON:146:1,2016-02-11T21:30:00Z,28.1324,-97.0345,72.6,1111122 
TCOON,ioos:station:TCOON:146:1,2016-02-11T22:30:00Z,28.1324,-97.0345,69.4,1111122 
TCOON,ioos:station:TCOON:146:1,2016-02-11T23:30:00Z,28.1324,-97.0345,73.3,1111122 
TCOON,ioos:station:TCOON:146:1,2016-02-12T00:30:00Z,28.1324,-97.0345,78.3,1111122 
TCOON,ioos:station:TCOON:146:1,2016-02-12T01:30:00Z,28.1324,-97.0345,82.4,1111122 
TCOON,ioos:station:TCOON:146:1,2016-02-12T02:30:00Z,28.1324,-97.0345,84.9,1111122 
TCOON,ioos:station:TCOON:146:1,2016-02-12T03:30:00Z,28.1324,-97.0345,87.9,1111122 
TCOON,ioos:station:TCOON:146:1,2016-02-12T04:30:00Z,28.1324,-97.0345,89.9,1111122 
TCOON,ioos:station:TCOON:146:1,2016-02-12T05:30:00Z,28.1324,-97.0345,90.0,1111122 
TCOON,ioos:station:TCOON:146:1,2016-02-12T06:30:00Z,28.1324,-97.0345,90.8,1111122 
TCOON,ioos:station:TCOON:146:1,2016-02-12T07:30:00Z,28.1324,-97.0345,92.9,1111122 
TCOON,ioos:station:TCOON:146:1,2016-02-12T08:30:00Z,28.1324,-97.0345,93.8,1111122 
TCOON,ioos:station:TCOON:146:1,2016-02-12T10:30:00Z,28.1324,-97.0345,95.2,1111122 
TCOON,ioos:station:TCOON:146:1,2016-02-12T11:30:00Z,28.1324,-97.0345,95.8,1111122 
TCOON,ioos:station:TCOON:146:1,2016-02-12T12:30:00Z,28.1324,-97.0345,96.6,1111122 
TCOON,ioos:station:TCOON:146:1,2016-02-12T13:30:00Z,28.1324,-97.0345,96.0,1111122 
TCOON,ioos:station:TCOON:146:1,2016-02-12T14:30:00Z,28.1324,-97.0345,91.5,1111122 
TCOON,ioos:station:TCOON:146:1,2016-02-12T15:30:00Z,28.1324,-97.0345,87.2,1111122 
TCOON,ioos:station:TCOON:146:1,2016-02-12T16:30:00Z,28.1324,-97.0345,79.9,1111122 
TCOON,ioos:station:TCOON:146:1,2016-02-12T17:30:00Z,28.1324,-97.0345,81.4,1111122 
TCOON,ioos:station:TCOON:146:1,2016-02-12T18:30:00Z,28.1324,-97.0345,82.3,1111122 
TCOON,ioos:station:TCOON:146:1,2016-02-12T19:30:00Z,28.1324,-97.0345,80.4,1111122 
TCOON,ioos:station:TCOON:146:1,2016-02-12T20:30:00Z,28.1324,-97.0345,78.6,1111122 
TCOON,ioos:station:TCOON:146:1,2016-02-12T21:30:00Z,28.1324,-97.0345,77.4,1111122 
TCOON,ioos:station:TCOON:146:1,2016-02-12T22:30:00Z,28.1324,-97.0345,77.0,1111122 
TCOON,ioos:station:TCOON:146:1,2016-02-12T23:30:00Z,28.1324,-97.0345,77.2,1111122 
TCOON,ioos:station:TCOON:146:1,2016-02-13T00:30:00Z,28.1324,-97.0345,83.2,1111122 
TCOON,ioos:station:TCOON:146:1,2016-02-13T01:30:00Z,28.1324,-97.0345,87.8,1111122 
TCOON,ioos:station:TCOON:146:1,2016-02-13T02:30:00Z,28.1324,-97.0345,89.0,1111122 
TCOON,ioos:station:TCOON:146:1,2016-02-13T03:30:00Z,28.1324,-97.0345,93.1,1111122 
TCOON,ioos:station:TCOON:146:1,2016-02-13T04:30:00Z,28.1324,-97.0345,93.7,1111122 
TCOON,ioos:station:TCOON:146:1,2016-02-13T05:30:00Z,28.1324,-97.0345,94.3,1111122 
TCOON,ioos:station:TCOON:146:1,2016-02-13T06:30:00Z,28.1324,-97.0345,94.2,1111122 
TCOON,ioos:station:TCOON:146:1,2016-02-13T07:30:00Z,28.1324,-97.0345,95.4,1111122 
TCOON,ioos:station:TCOON:146:1,2016-02-13T08:30:00Z,28.1324,-97.0345,94.9,1111122 
TCOON,ioos:station:TCOON:146:1,2016-02-13T09:30:00Z,28.1324,-97.0345,94.7,1111122 
TCOON,ioos:station:TCOON:146:1,2016-02-13T10:30:00Z,28.1324,-97.0345,95.6,1111122 
TCOON,ioos:station:TCOON:146:1,2016-02-13T11:30:00Z,28.1324,-97.0345,95.9,1111122 
TCOON,ioos:station:TCOON:146:1,2016-02-13T12:30:00Z,28.1324,-97.0345,99.4,1111122 
TCOON,ioos:station:TCOON:146:1,2016-02-13T13:30:00Z,28.1324,-97.0345,98.7,1111122 
TCOON,ioos:station:TCOON:146:1,2016-02-13T14:30:00Z,28.1324,-97.0345,98.8,1111122 
TCOON,ioos:station:TCOON:146:1,2016-02-13T15:30:00Z,28.1324,-97.0345,97.5,1111122 
TCOON,ioos:station:TCOON:146:1,2016-02-13T16:30:00Z,28.1324,-97.0345,87.2,1111122 
TCOON,ioos:station:TCOON:146:1,2016-02-13T17:30:00Z,28.1324,-97.0345,83.3,1111122 
TCOON,ioos:station:TCOON:146:1,2016-02-13T18:30:00Z,28.1324,-97.0345,79.9,1111122 
TCOON,ioos:station:TCOON:146:1,2016-02-13T19:30:00Z,28.1324,-97.0345,78.8,1111122 
TCOON,ioos:station:TCOON:146:1,2016-02-13T20:30:00Z,28.1324,-97.0345,79.2,1111122 
TCOON,ioos:station:TCOON:146:1,2016-02-13T21:30:00Z,28.1324,-97.0345,78.4,1111122 
TCOON,ioos:station:TCOON:146:1,2016-02-13T22:30:00Z,28.1324,-97.0345,78.2,1111122 
TCOON,ioos:station:TCOON:146:1,2016-02-13T23:30:00Z,28.1324,-97.0345,78.1,1111122 
TCOON,ioos:station:TCOON:146:1,2016-02-14T00:30:00Z,28.1324,-97.0345,80.8,1111122 
TCOON,ioos:station:TCOON:146:1,2016-02-14T01:30:00Z,28.1324,-97.0345,84.6,1111122 
TCOON,ioos:station:TCOON:146:1,2016-02-14T02:30:00Z,28.1324,-97.0345,83.5,1111122 
TCOON,ioos:station:TCOON:146:1,2016-02-14T03:30:00Z,28.1324,-97.0345,82.8,1111122 
TCOON,ioos:station:TCOON:146:1,2016-02-14T04:30:00Z,28.1324,-97.0345,84.2,1111122 
TCOON,ioos:station:TCOON:146:1,2016-02-14T05:30:00Z,28.1324,-97.0345,86.8,1111122 
TCOON,ioos:station:TCOON:146:1,2016-02-14T06:30:00Z,28.1324,-97.0345,86.1,1111122 
TCOON,ioos:station:TCOON:146:1,2016-02-14T07:30:00Z,28.1324,-97.0345,86.3,1111122 
TCOON,ioos:station:TCOON:146:1,2016-02-14T08:30:00Z,28.1324,-97.0345,86.3,1111122 
TCOON,ioos:station:TCOON:146:1,2016-02-14T10:30:00Z,28.1324,-97.0345,85.1,1111122 
TCOON,ioos:station:TCOON:146:1,2016-02-14T11:30:00Z,28.1324,-97.0345,84.6,1111122 
TCOON,ioos:station:TCOON:146:1,2016-02-14T12:30:00Z,28.1324,-97.0345,87.8,1111122 
TCOON,ioos:station:TCOON:146:1,2016-02-14T13:30:00Z,28.1324,-97.0345,89.3,1111122 
TCOON,ioos:station:TCOON:146:1,2016-02-14T14:30:00Z,28.1324,-97.0345,88.5,1111122 
TCOON,ioos:station:TCOON:146:1,2016-02-14T15:30:00Z,28.1324,-97.0345,87.4,1111122 
TCOON,ioos:station:TCOON:146:1,2016-02-14T16:30:00Z,28.1324,-97.0345,81.4,1111122 
TCOON,ioos:station:TCOON:146:1,2016-02-14T17:30:00Z,28.1324,-97.0345,78.3,1111122 
TCOON,ioos:station:TCOON:146:1,2016-02-14T18:30:00Z,28.1324,-97.0345,74.8,1111122 
TCOON,ioos:station:TCOON:146:1,2016-02-14T19:30:00Z,28.1324,-97.0345,74.7,1111122 
TCOON,ioos:station:TCOON:146:1,2016-02-14T20:30:00Z,28.1324,-97.0345,79.3,1111122 
TCOON,ioos:station:TCOON:146:1,2016-02-14T21:30:00Z,28.1324,-97.0345,77.3,1111122 
TCOON,ioos:station:TCOON:146:1,2016-02-14T22:30:00Z,28.1324,-97.0345,79.1,1111122 
TCOON,ioos:station:TCOON:146:1,2016-02-14T23:30:00Z,28.1324,-97.0345,82.1,1111122 
TCOON,ioos:station:TCOON:146:1,2016-02-15T00:30:00Z,28.1324,-97.0345,84.0,1111122 
TCOON,ioos:station:TCOON:146:1,2016-02-15T01:30:00Z,28.1324,-97.0345,84.7,1111122 
TCOON,ioos:station:TCOON:146:1,2016-02-15T02:30:00Z,28.1324,-97.0345,87.3,1111122 
TCOON,ioos:station:TCOON:146:1,2016-02-15T03:30:00Z,28.1324,-97.0345,88.9,1111122 
TCOON,ioos:station:TCOON:146:1,2016-02-15T04:30:00Z,28.1324,-97.0345,88.8,1111122 
TCOON,ioos:station:TCOON:146:1,2016-02-15T05:30:00Z,28.1324,-97.0345,88.8,1111122 
TCOON,ioos:station:TCOON:146:1,2016-02-15T06:30:00Z,28.1324,-97.0345,91.9,1111122 
TCOON,ioos:station:TCOON:146:1,2016-02-15T07:30:00Z,28.1324,-97.0345,92.1,1111122 
TCOON,ioos:station:TCOON:146:1,2016-02-15T08:30:00Z,28.1324,-97.0345,91.7,1111122 
TCOON,ioos:station:TCOON:146:1,2016-02-15T09:30:00Z,28.1324,-97.0345,93.4,1111122 
TCOON,ioos:station:TCOON:146:1,2016-02-15T10:30:00Z,28.1324,-97.0345,94.6,1111122 
TCOON,ioos:station:TCOON:146:1,2016-02-15T11:30:00Z,28.1324,-97.0345,95.3,1111122 
TCOON,ioos:station:TCOON:146:1,2016-02-15T12:30:00Z,28.1324,-97.0345,94.7,1111122 
TCOON,ioos:station:TCOON:146:1,2016-02-15T13:30:00Z,28.1324,-97.0345,93.8,1111122 
TCOON,ioos:station:TCOON:146:1,2016-02-15T14:30:00Z,28.1324,-97.0345,91.6,1111122 
TCOON,ioos:station:TCOON:146:1,2016-02-15T15:30:00Z,28.1324,-97.0345,91.0,1111122 
TCOON,ioos:station:TCOON:146:1,2016-02-15T16:30:00Z,28.1324,-97.0345,87.0,1111122 
TCOON,ioos:station:TCOON:146:1,2016-02-15T17:30:00Z,28.1324,-97.0345,84.4,1111122 
TCOON,ioos:station:TCOON:146:1,2016-02-15T18:30:00Z,28.1324,-97.0345,78.6,1111122 
TCOON,ioos:station:TCOON:146:1,2016-02-15T19:30:00Z,28.1324,-97.0345,69.5,1111122 
TCOON,ioos:station:TCOON:146:1,2016-02-15T20:30:00Z,28.1324,-97.0345,61.7,1111122 
TCOON,ioos:station:TCOON:146:1,2016-02-15T21:30:00Z,28.1324,-97.0345,60.6,1111122 
TCOON,ioos:station:TCOON:146:1,2016-02-15T22:30:00Z,28.1324,-97.0345,58.3,1111122 
TCOON,ioos:station:TCOON:146:1,2016-02-15T23:30:00Z,28.1324,-97.0345,54.0,1111122 
TCOON,ioos:station:TCOON:146:1,2016-02-16T00:30:00Z,28.1324,-97.0345,82.9,1111122 
TCOON,ioos:station:TCOON:146:1,2016-02-16T01:30:00Z,28.1324,-97.0345,56.8,1111122 
TCOON,ioos:station:TCOON:146:1,2016-02-16T02:30:00Z,28.1324,-97.0345,59.9,1111122 
TCOON,ioos:station:TCOON:146:1,2016-02-16T03:30:00Z,28.1324,-97.0345,61.2,1111122 
TCOON,ioos:station:TCOON:146:1,2016-02-16T04:30:00Z,28.1324,-97.0345,61.1,1111122 
TCOON,ioos:station:TCOON:146:1,2016-02-16T05:30:00Z,28.1324,-97.0345,62.7,1111122 
TCOON,ioos:station:TCOON:146:1,2016-02-16T06:30:00Z,28.1324,-97.0345,68.7,1111122 
TCOON,ioos:station:TCOON:146:1,2016-02-16T07:30:00Z,28.1324,-97.0345,73.4,1111122 
TCOON,ioos:station:TCOON:146:1,2016-02-16T08:30:00Z,28.1324,-97.0345,79.3,1111122 
TCOON,ioos:station:TCOON:146:1,2016-02-16T10:30:00Z,28.1324,-97.0345,79.4,1111122 
TCOON,ioos:station:TCOON:146:1,2016-02-16T11:30:00Z,28.1324,-97.0345,78.6,1111122 
TCOON,ioos:station:TCOON:146:1,2016-02-16T12:30:00Z,28.1324,-97.0345,70.8,1111122 
TCOON,ioos:station:TCOON:146:1,2016-02-16T13:30:00Z,28.1324,-97.0345,72.0,1111122 
TCOON,ioos:station:TCOON:146:1,2016-02-16T14:30:00Z,28.1324,-97.0345,72.2,1111122 
TCOON,ioos:station:TCOON:146:1,2016-02-16T15:30:00Z,28.1324,-97.0345,69.4,1111122 
TCOON,ioos:station:TCOON:146:1,2016-02-16T16:30:00Z,28.1324,-97.0345,74.2,1111122 
TCOON,ioos:station:TCOON:146:1,2016-02-16T17:30:00Z,28.1324,-97.0345,72.3,1111122 
TCOON,ioos:station:TCOON:146:1,2016-02-16T18:30:00Z,28.1324,-97.0345,73.5,1111122 
TCOON,ioos:station:TCOON:146:1,2016-02-16T19:30:00Z,28.1324,-97.0345,75.3,1111122 
TCOON,ioos:station:TCOON:146:1,2016-02-16T20:30:00Z,28.1324,-97.0345,78.0,1111122 
TCOON,ioos:station:TCOON:146:1,2016-02-16T21:30:00Z,28.1324,-97.0345,77.7,1111122 
TCOON,ioos:station:TCOON:146:1,2016-02-16T22:30:00Z,28.1324,-97.0345,77.9,1111122 
TCOON,ioos:station:TCOON:146:1,2016-02-16T23:30:00Z,28.1324,-97.0345,79.1,1111122 
TCOON,ioos:station:TCOON:146:1,2016-02-17T00:30:00Z,28.1324,-97.0345,82.1,1111122 
TCOON,ioos:station:TCOON:146:1,2016-02-17T01:30:00Z,28.1324,-97.0345,83.1,1111122 
TCOON,ioos:station:TCOON:146:1,2016-02-17T02:30:00Z,28.1324,-97.0345,86.7,1111122 
TCOON,ioos:station:TCOON:146:1,2016-02-17T03:30:00Z,28.1324,-97.0345,90.1,1111122 
TCOON,ioos:station:TCOON:146:1,2016-02-17T04:30:00Z,28.1324,-97.0345,91.2,1111122 
TCOON,ioos:station:TCOON:146:1,2016-02-17T05:30:00Z,28.1324,-97.0345,91.6,1111122 
TCOON,ioos:station:TCOON:146:1,2016-02-17T06:30:00Z,28.1324,-97.0345,93.5,1111122 
TCOON,ioos:station:TCOON:146:1,2016-02-17T07:30:00Z,28.1324,-97.0345,95.1,1111122 
TCOON,ioos:station:TCOON:146:1,2016-02-17T08:30:00Z,28.1324,-97.0345,94.6,1111122 
TCOON,ioos:station:TCOON:146:1,2016-02-17T10:30:00Z,28.1324,-97.0345,99.5,1111122 
TCOON,ioos:station:TCOON:146:1,2016-02-17T11:30:00Z,28.1324,-97.0345,99.5,1111122 
TCOON,ioos:station:TCOON:146:1,2016-02-17T12:30:00Z,28.1324,-97.0345,75.8,1111122 
TCOON,ioos:station:TCOON:146:1,2016-02-17T13:30:00Z,28.1324,-97.0345,88.4,1111122 
TCOON,ioos:station:TCOON:146:1,2016-02-17T14:30:00Z,28.1324,-97.0345,76.5,1111122 
TCOON,ioos:station:TCOON:146:1,2016-02-17T15:30:00Z,28.1324,-97.0345,67.1,1111122 
TCOON,ioos:station:TCOON:146:1,2016-02-17T16:30:00Z,28.1324,-97.0345,57.9,1111122 
TCOON,ioos:station:TCOON:146:1,2016-02-17T17:30:00Z,28.1324,-97.0345,51.0,1111122 
TCOON,ioos:station:TCOON:146:1,2016-02-17T18:30:00Z,28.1324,-97.0345,55.7,1111122 
TCOON,ioos:station:TCOON:146:1,2016-02-17T19:30:00Z,28.1324,-97.0345,59.4,1111122 
TCOON,ioos:station:TCOON:146:1,2016-02-17T20:30:00Z,28.1324,-97.0345,61.4,1111122 
TCOON,ioos:station:TCOON:146:1,2016-02-17T21:30:00Z,28.1324,-97.0345,64.6,1111122 
TCOON,ioos:station:TCOON:146:1,2016-02-17T22:30:00Z,28.1324,-97.0345,72.9,1111122 
TCOON,ioos:station:TCOON:146:1,2016-02-17T23:30:00Z,28.1324,-97.0345,74.6,1111122 
TCOON,ioos:station:TCOON:146:1,2016-02-18T00:30:00Z,28.1324,-97.0345,79.7,1111122 
TCOON,ioos:station:TCOON:146:1,2016-02-18T01:30:00Z,28.1324,-97.0345,82.6,1111122 
TCOON,ioos:station:TCOON:146:1,2016-02-18T02:30:00Z,28.1324,-97.0345,82.1,1111122 
TCOON,ioos:station:TCOON:146:1,2016-02-18T03:30:00Z,28.1324,-97.0345,81.3,1111122 
TCOON,ioos:station:TCOON:146:1,2016-02-18T04:30:00Z,28.1324,-97.0345,83.1,1111122 
TCOON,ioos:station:TCOON:146:1,2016-02-18T05:30:00Z,28.1324,-97.0345,86.0,1111122 
TCOON,ioos:station:TCOON:146:1,2016-02-18T06:30:00Z,28.1324,-97.0345,87.0,1111122 
TCOON,ioos:station:TCOON:146:1,2016-02-18T07:30:00Z,28.1324,-97.0345,87.6,1111122 
TCOON,ioos:station:TCOON:146:1,2016-02-18T08:30:00Z,28.1324,-97.0345,88.3,1111122 
TCOON,ioos:station:TCOON:146:1,2016-02-18T10:30:00Z,28.1324,-97.0345,90.6,1111122 
TCOON,ioos:station:TCOON:146:1,2016-02-18T11:30:00Z,28.1324,-97.0345,91.5,1111122 
TCOON,ioos:station:TCOON:146:1,2016-02-18T12:30:00Z,28.1324,-97.0345,92.1,1111122 
TCOON,ioos:station:TCOON:146:1,2016-02-18T13:30:00Z,28.1324,-97.0345,91.7,1111122 
TCOON,ioos:station:TCOON:146:1,2016-02-18T14:30:00Z,28.1324,-97.0345,89.3,1111122 
TCOON,ioos:station:TCOON:146:1,2016-02-18T15:30:00Z,28.1324,-97.0345,87.1,1111122 